Weather Roundup
Issued by NWS Springfield, MO

Home | Current Version | Previous Version | Text Only | Print | Product List | Glossary On
Versions: 1 2 3 4 5 6 7 8 9 10 11 12 13 14 15 16 17 18 19 20 21 22 23 24 25 26 27 28 29 30 31 32 33 34 35 36 37 38 39 40 41 42 43 44 45 46 47 48 49 50
000
NZUS99 KSGF 290157
HRRSGF

HOURLY WEATHER
NATIONAL WEATHER SERVICE SPRINGFIELD MO
900 PM CDT FRI APR 28 2017

......SGF CWA......

CITY           SKY/WX    TMP DP  RH WIND       PRES   REMARKS
SPRINGFIELD    CLOUDY    64  61  90 E5        29.80R
JOPLIN         MOCLDY    65  61  87 VRB5      29.79R
WEST PLAINS    CLOUDY    65  63  93 CALM      29.81R FOG
ROLLA          CLOUDY    60  60 100 SE3       29.83R
BRANSON        CLOUDY    63  63 100 CALM      29.80R FOG

......SURROUNDING SGF CWA......

CITY           SKY/WX    TMP DP  RH WIND       PRES   REMARKS
CHANUTE        PTCLDY    62  55  77 E3        29.79R
PARSONS        CLOUDY    62  58  86 CALM      29.79R
COFFEYVILLE    CLOUDY    62  59  90 NE8       29.77R
EMPORIA        CLOUDY    51  50  96 N13G21    29.85R
ROGERS AR      LGT RAIN  64  63  94 E7        29.77S
HARRISON AR    CLOUDY    66  64  93 CALM      29.79R

......KANSAS AND MISSOURI......

CITY           SKY/WX    TMP DP  RH WIND       PRES   REMARKS
KANSAS CTY INT DRZL/FOG  46  46 100 N12       29.90R VSB 1/2
SEDALIA        CLOUDY    60  60 100 CALM      29.85R
ST JOSEPH      CLOUDY    44  44 100 N10       29.94R
ST LOUIS       CLOUDY    60  56  86 E5        29.85R
WICHITA        CLOUDY    61  53  75 N21G30    29.78R
TOPEKA         CLOUDY    47  47 100 N14G22    29.90R
OLATHE         CLOUDY    53  53 100 N10       29.86R

......TENNESSEE......

CITY           SKY/WX    TMP DP  RH WIND       PRES   REMARKS
MEMPHIS        NOT AVBL
NASHVILLE      PTCLDY    76  67  73 S9        29.91R

......ARKANSAS.......

CITY           SKY/WX    TMP DP  RH WIND       PRES   REMARKS
FAYETTEVILLE   CLOUDY    66  65  96 NE3       29.76R
FT SMITH       CLOUDY    71  65  81 E8        29.70R
LITTLE ROCK    CLOUDY    78  73  84 SE8       29.74R

......OKLAHOMA.......

CITY           SKY/WX    TMP DP  RH WIND       PRES   REMARKS
TULSA          CLOUDY    71  64  78 NE8       29.70R
PONCA CITY     CLOUDY    67  55  65 E9        29.72R
MCALESTER      CLOUDY    76  69  79 NE5       29.65S
OKLAHOMA CITY  CLOUDY    70  62  76 E9        29.66R

......IOWA............

CITY           SKY/WX    TMP DP  RH WIND       PRES   REMARKS
DES MOINES     NOT AVBL
QUAD CITIES    CLOUDY    49  46  90 NE12      29.91R

......ILLINOIS........

CITY           SKY/WX    TMP DP  RH WIND       PRES   REMARKS
QUINCY         CLOUDY    56  55  97 E3        29.86R FOG
CHICAGO        CLOUDY    50  42  74 NE9       29.94R



USA.gov is the U.S. government's official web portal to all federal, state and local government web resources and services.